Regional Weather Roundup
Issued by NWS

Home | Current Version | Previous Version | Graphics & Text | Print | Product List | Glossary On
Versions: 1 2 3 4 5 6 7 8 9 10 11 12 13 14 15 16 17 18 19 20 21 22 23 24 25 26 27 28 29 30 31 32 33 34 35 36 37 38 39 40 41 42 43 44 45 46 47 48 49 50
000
ASUS44 KMEG 180910
RWRTN
TENNESSEE HOURLY STATE WEATHER ROUNDUP
NATIONAL WEATHER SERVICE MEMPHIS TN
400 AM CDT WED OCT 18 2017

TNZ002-004-019-021-049-052-054-088>092-181000-
WEST TENNESSEE

CITY           SKY/WX    TMP DP  RH WIND       PRES   REMARKS
MEMPHIS INTL   CLEAR     55  47  74 SE6       30.23R
NWS MEMPHIS      N/A     47 N/A N/A MISG        N/A
JACKSON        CLEAR     41  41 100 CALM      30.24S
SOMERVILLE     CLEAR     46  45  93 CALM      30.22S
COVINGTON      CLEAR     43  41  93 CALM      30.23S
UNION CITY     PTCLDY    41  41 100 CALM      30.23S
BOLIVAR        CLEAR     39  39 100 CALM      30.23S
PARIS          CLEAR     45  43  93 CALM      30.23S
HUNTINGDON     CLEAR     45  43  93 CALM      30.24R
LEXINGTON      CLEAR     39  39 100 CALM      30.24S
SELMER         CLEAR     45  43  93 CALM      30.23S
SAVANNAH       CLEAR     39  39 100 CALM      30.24S
$$

TNZ008-025-027-028-033-062-065-066-181000-
NORTH MIDDLE TENNESSEE

CITY           SKY/WX    TMP DP  RH WIND       PRES   REMARKS
NASHVILLE      CLEAR     43  40  89 CALM      30.27S
PORTLAND       CLEAR     43  41  93 S7        30.25S FOG
CLARKSVILLE    CLEAR     42  40  92 E3        30.25S FOG
SMYRNA         CLEAR     40  40 100 S3        30.29S
COOKEVILLE     FOG       36  36 100 CALM      30.27S VSB 1/2
GALLATIN       CLEAR     39  37  93 CALM      30.30S
CROSSVILLE     CLOUDY    41  38  89 CALM      30.29S
$$

TNZ061-075-076-078-094-096-097-181000-
SOUTH MIDDLE TENNESSEE

CITY           SKY/WX    TMP DP  RH WIND       PRES   REMARKS
FAYETTEVILLE   CLEAR     46  45  93 CALM      30.25S
TULLAHOMA        N/A     43  39  87 CALM      30.27S
WINCHESTER     CLEAR     45  43  93 E5          N/A
COLUMBIA       CLEAR     41  41 100 CALM      30.25S
SHELBYVILLE    CLEAR     45  43  93 E5        30.27S
$$

TNZ017-018-042-046-047-181000-
NORTHEAST TENNESSEE

CITY           SKY/WX    TMP DP  RH WIND       PRES   REMARKS
TRI CITIES     CLOUDY    38  38 100 CALM      30.31S
ELIZABETHTON   CLEAR     41  39  93 NE3       30.31S
$$

TNZ012-013-036-069-073-074-181000-
CENTRAL EAST TENNESSEE

CITY           SKY/WX    TMP DP  RH WIND       PRES   REMARKS
KNOXVILLE      CLOUDY    42  42 100 NE3       30.29S
OAK RIDGE      PTCLDY    43  43 100 CALM      30.32S
DOWNTOWN KNOXV FOG       45  45 100 CALM      30.31S VSB 0
GATLINBURG     CLEAR     41  41 100 CALM      30.31R
MORRISTOWN     CLEAR     43  39  87 CALM      30.29S
JACKSBORO      PTCLDY    39  39 100 CALM      30.34S
$$

TNZ083-085-099-181000-
SOUTHEAST TENNESSEE

CITY           SKY/WX    TMP DP  RH WIND       PRES   REMARKS
CHATTANOOGA    CLOUDY    47  44  90 CALM      30.30S
DAYTON         FOG       43  43 100 CALM      30.29S VSB 0
$$

SKY/WX REPORTED AS FAIR MEANS FEW OR NO CLOUDS BELOW
12 THOUSAND FEET.




USA.gov is the U.S. government's official web portal to all federal, state and local government web resources and services.